#timestamp,LO_Frequency,Hit,StdDev 
1458259215.3,286046999.2,N
1458259235.1,286046994.9,N
1458259255.9,286046997.6,N
1458259275.7,286046998.4,N
1458259295.5,286046998.8,N
1458259315.4,286046995.6,N
1458259335.2,286046997.7,N
1458259355.0,286046999.4,N
1458259355.9,286046999.4,N
1458259375.8,286046996.5,N
1458259395.6,286046998.7,N
1458259415.4,286046999.5,N
1458259435.3,286046995.4,N
1458259455.1,286046995.5,N
1458259456.0,286046995.5,N
1458259475.8,286046995.2,N
1458259495.7,286046995.9,N
1458259515.5,286046996.5,N
1458259535.3,286046995.1,N
1458259555.1,286046994.7,N
1458259575.9,286046991.0,Y
1458259595.7,286046994.5,P
1458259615.5,286046995.4,P
1458259635.4,286046997.0,N
1458259655.2,286046994.5,Y
1458259675.0,286046996.8,P
1458259676.0,286046996.8,P
1458259695.8,286046997.4,P
1458259715.6,286046996.4,Y
1458259735.5,286046997.3,P
1458259755.3,286046997.4,P
1458259775.1,286046995.3,P
1458259795.9,286046995.0,Y
1458259815.7,286047001.0,P
1458259835.5,286047001.1,N
1458259855.3,286046998.1,N
1458259875.2,286046998.9,N
1458259895.0,286046995.6,N
1458259895.9,286046995.6,N
1458259915.8,286046992.4,Y
1458259935.6,286046993.6,P
1458259955.4,286046994.1,N
1458259975.2,286046990.8,P
1458259995.1,286046993.1,N
1458259996.0,286046993.1,N
1458260015.8,286046992.8,Y
1458260035.6,286046996.6,P
1458260055.5,286046996.7,N
1458260075.3,286046996.9,N
1458260095.1,286046998.7,N
1458260115.9,286046999.1,N
1458260135.7,286046997.3,N
1458260155.5,286046993.4,Y
1458260175.4,286046997.6,P
1458260195.2,286046995.9,P
1458260215.0,286046999.4,N
1458260215.9,286046999.4,N
1458260235.8,286046997.1,N
1458260255.6,286046998.0,N
1458260275.4,286046996.8,N
1458260295.3,286046999.5,N
1458260315.1,286046997.2,N
1458260316.0,286046997.2,N
1458260335.8,286046997.6,N
1458260355.7,286046994.5,Y
1458260375.5,286046994.0,P
1458260395.3,286046993.3,P
1458260415.2,286046996.4,N
1458260435.9,286046991.4,Y
1458260455.7,286046996.4,P
1458260475.6,286046993.5,P
1458260495.4,286046994.7,P
1458260515.2,286046993.8,Y
1458260535.1,286046998.1,P
1458260536.0,286046998.1,N
1458260555.8,286046999.7,N
1458260575.6,286046998.9,N
1458260595.5,286046998.9,N
1458260615.3,286046998.2,N
1458260635.1,286046999.3,N
1458260655.9,286047000.5,N
1458260675.7,286046998.1,N
1458260695.5,286047001.3,N
1458260715.3,286047003.1,N
1458260735.2,286047002.2,N
1458260755.0,286047001.4,N
1458260755.9,286047001.4,N
1458260775.7,286047005.3,N
1458260795.6,286047006.6,N
1458260815.4,286047007.8,N
1458260835.2,286047008.2,N
1458260855.1,286047008.2,N
1458260856.0,286047008.2,N
1458260875.8,286047012.3,Y
1458260895.6,286047009.7,P
1458260915.5,286047012.4,P
1458260935.3,286047011.1,N
1458260955.1,286047011.9,N
1458260975.9,286047013.7,Y
1458260995.7,286047005.5,P
1458261015.5,286047006.3,P
1458261035.4,286047008.5,P
1458261055.2,286047009.8,Y
1458261075.0,286046999.7,P
1458261075.9,286046999.7,N
1458261095.8,286047002.7,N
1458261115.6,286047004.2,N
1458261135.4,286047003.6,N
1458261155.3,286047007.0,N
1458261175.1,286047005.2,N
1458261176.0,286047005.2,N
1458261195.8,286047006.3,N
1458261215.7,286047003.7,N
1458261235.5,286047001.9,N
1458261255.3,286047002.8,N
1458261275.1,286047000.8,N
1458261295.9,286047002.7,N
1458261315.7,286047002.3,N
1458261335.5,286047001.8,N
1458261355.4,286047001.5,N
1458261375.2,286046998.7,N
1458261395.0,286046999.3,N
1458261395.9,286046999.3,N
1458261415.8,286046998.7,N
1458261435.6,286047000.7,N
1458261455.4,286046997.8,N
1458261475.3,286046996.5,N
1458261495.1,286046997.2,N
1458261496.0,286046997.2,N
1458261515.8,286047000.6,N
1458261535.7,286046999.6,N
1458261555.5,286046994.9,N
1458261575.3,286046994.2,N
1458261595.1,286046995.3,N
1458261615.9,286046997.6,N
1458261635.7,286046997.6,N
1458261655.5,286046995.7,N
1458261675.4,286046995.3,N
1458261695.2,286046996.4,N
1458261715.0,286046992.3,N
1458261715.9,286046992.3,N
1458261735.8,286046993.4,N
1458261755.6,286046997.9,N
1458261775.4,286046994.4,N
1458261795.3,286046994.4,N
1458261815.1,286046994.5,N
1458261816.0,286046994.5,N
1458261835.8,286046989.1,Y
1458261855.7,286046992.6,P
1458261875.5,286046990.6,P
1458261895.3,286046992.7,N
1458261915.2,286046991.5,Y
1458261935.0,286046995.9,P
1458261935.9,286046995.9,P
1458261955.7,286046995.8,P
1458261975.6,286046994.5,Y
1458261995.4,286046996.5,P
1458262015.2,286046999.9,N
1458262035.1,286047000.4,N
1458262036.0,286047000.4,N
1458262055.8,286047002.2,N
1458262075.6,286047001.2,N
1458262095.5,286047000.5,N
1458262115.3,286047000.0,N
1458262135.1,286046998.3,N
1458262155.9,286046996.9,N
1458262175.7,286046993.8,N
1458262195.5,286046993.6,N
1458262215.4,286046994.1,N
1458262235.2,286046992.4,N
1458262255.0,286046992.6,N
1458262255.9,286046992.6,N
1458262275.8,286046992.6,N
1458262295.6,286046991.2,N
1458262315.4,286046990.2,N
1458262335.3,286046988.6,Y
1458262355.1,286046995.2,P
1458262356.0,286046995.2,P
1458262375.8,286046996.2,P
1458262395.7,286046997.9,Y
1458262415.5,286047003.2,P
1458262435.3,286047001.6,N
1458262455.1,286047000.1,N
1458262475.9,286046998.2,N
1458262495.7,286046996.6,N
1458262515.5,286046999.9,N
1458262535.4,286046998.5,N
1458262555.2,286047001.1,N
1458262575.0,286047000.3,N
1458262575.9,286047000.3,N
1458262595.8,286047001.8,N
1458262615.6,286047002.2,N
1458262635.4,286047005.5,N
1458262655.3,286047004.4,N
1458262675.1,286047002.0,N
1458262676.0,286047002.0,N
1458262695.8,286047001.9,N
1458262715.7,286047001.9,N
1458262735.5,286047002.3,N
1458262755.3,286047001.8,N
1458262775.2,286047003.8,N
1458262795.9,286047000.2,N
